Tracking 29892 objects as of 21-Nov-2024
HD Live streaming from Space Station
objects crossing your sky now

USA 410

Track USA 410 now!
10-day predictions


NORAD ID: 61031
Int'l Code: 2024-160L
Perigee: 559.5 km
Apogee: 562.3 km
Inclination: 70.0 °
Period: 95.7 minutes
Semi major axis: 6931 km
RCS: Unknown
Launch date: September 6, 2024
Source: United States (US)
Launch site: AIR FORCE WESTERN TEST RANGE (AFWTR)
Your satellite tracking list
Your tracking list is empty




NASA's NSSDC Master Catalog

Two Line Element Set (TLE):
1 61031U 24160L   24272.77505205 0.00000000  00000-0  00000-0 0    05
2 61031  70.0000 146.8497 0002000 184.2088 175.7911 15.04275952    03
Source of the keplerian elements: McCants